Vorticity
6 8 11 15 18 18 18 17 17 16 15 15 15 15 15 16 16 16 16 15 13 12 11 9 8 9 10 11 14 16 17 18 20 21 20 20 20 19 18 17 16 14 13 12 13 12 8 7 8 6 4 4 5 5 6 7 8 8 7 8 9 6 5 8 8 6 7 6 7 7 5 5 4 3 4 4 5 9 13 15 15 16 18 14 13 14 12
11 16 18 19 17 15 14 13 12 12 12 12 13 14 13 13 13 11 10 9 8 7 8 8 9 13 15 16 18 18 18 18 18 18 17 16 16 14 13 12 10 10 10 8 8 8 6 5 6 7 7 7 8 8 8 8 8 7 6 6 8 7 4 7 7 5 5 4 3 4 4 4 4 3 4 4 5 9 11 13 14 15 15 14 14 14 11
18 19 17 14 12 11 10 10 10 10 11 11 12 12 11 9 10 8 6 8 9 9 10 13 13 15 16 15 15 16 15 15 15 15 14 13 12 11 9 10 9 8 8 7 7 7 8 8 8 9 10 9 8 7 7 7 6 6 5 4 7 8 4 5 6 4 4 3 3 5 5 5 4 4 4 4 5 8 11 13 14 13 12 14 12 9 8
16 13 11 9 9 9 9 9 9 10 11 11 10 11 9 7 8 10 9 9 11 11 12 14 14 13 13 13 13 13 13 12 12 12 11 10 9 9 8 8 8 7 7 7 8 9 9 10 9 9 9 8 7 5 5 6 6 7 6 3 6 8 6 6 7 7 7 6 6 7 7 6 6 5 5 4 5 9 10 13 13 11 12 14 10 7 8
10 8 8 8 8 8 8 9 9 9 10 10 9 9 10 9 8 11 12 10 10 12 12 12 12 12 11 11 11 12 10 10 10 9 8 8 8 7 7 7 7 7 8 9 9 9 9 9 8 6 5 6 6 5 5 4 4 7 7 4 6 8 7 6 7 9 10 9 9 10 10 9 7 7 6 5 6 9 9 11 13 13 14 13 9 7 9
7 7 7 7 8 8 8 8 9 9 9 10 9 8 9 11 9 10 12 11 10 11 11 11 11 11 10 9 10 10 8 8 8 8 7 7 6 6 6 7 8 8 9 9 8 8 7 6 6 4 4 5 5 5 5 5 5 6 6 6 7 8 7 6 8 10 9 9 11 13 12 11 9 8 6 6 7 9 8 9 13 17 17 13 9 9 9
5 6 6 7 7 7 8 8 9 9 8 9 10 9 9 11 11 11 11 10 10 10 11 11 9 9 10 9 8 9 9 7 6 7 8 6 6 7 7 7 8 8 8 8 7 6 5 4 4 5 4 5 6 6 4 4 5 6 6 5 6 8 7 6 8 9 8 9 11 13 13 12 11 9 7 7 7 7 8 9 10 15 19 14 9 9 7
6 7 7 8 7 7 8 8 9 9 9 8 9 9 9 10 11 11 10 9 10 10 10 10 9 9 11 8 7 9 8 8 7 7 8 7 7 8 8 7 8 7 6 7 5 4 5 5 6 6 5 4 4 5 5 3 2 4 6 5 5 7 7 7 7 7 7 9 10 11 12 11 10 10 8 8 8 7 10 11 7 10 18 16 10 8 7
7 8 8 9 8 8 8 9 9 9 10 9 8 9 9 9 10 12 10 8 10 10 9 9 10 10 10 7 7 8 7 8 9 7 7 9 8 8 8 6 7 6 5 6 6 6 7 6 5 6 5 4 2 1 4 6 3 2 5 7 6 6 7 8 8 6 5 7 8 10 13 11 11 10 8 8 8 7 11 13 6 6 14 16 11 8 7
8 9 9 9 9 9 9 10 10 10 10 9 8 8 9 9 9 11 10 9 10 9 9 10 10 9 9 7 7 8 7 9 10 8 8 9 8 8 8 6 6 7 7 7 6 6 7 6 4 2 1 5 6 2 1 6 6 3 4 7 7 7 7 9 10 9 7 6 6 8 10 11 11 10 7 8 8 7 12 14 7 6 12 12 10 8 6
9 9 9 8 9 10 10 10 11 11 10 9 8 8 8 8 9 10 9 9 10 9 8 10 10 8 8 8 7 9 9 9 10 9 9 9 9 8 9 8 7 6 6 7 6 3 2 4 6 4 -0 1 5 5 3 4 5 4 4 6 8 7 7 9 10 10 9 8 7 8 9 11 12 9 7 9 7 6 13 15 7 8 13 10 9 10 6
10 9 9 9 9 9 11 12 12 11 9 8 8 7 7 8 8 9 9 9 9 9 8 10 10 8 8 9 9 10 10 9 9 10 9 8 8 7 6 7 7 5 4 3 4 4 2 0 3 6 4 1 2 3 4 4 4 4 3 4 7 7 7 9 11 10 10 10 8 8 9 10 10 8 8 10 6 5 13 16 8 8 13 11 10 10 7
9 9 8 9 9 10 11 13 13 11 9 8 8 6 7 8 7 7 9 9 8 9 8 9 10 9 8 9 9 10 9 9 9 9 8 8 6 5 5 4 4 5 6 3 1 4 5 2 1 4 4 4 3 2 3 3 3 4 3 3 6 7 6 8 11 9 9 10 9 7 9 9 8 9 10 9 6 3 8 14 11 8 11 12 11 10 9
8 8 9 9 10 11 13 14 13 11 9 8 7 6 7 8 7 6 9 8 8 9 9 8 9 10 9 9 9 9 8 8 8 7 6 7 5 4 5 5 4 3 5 5 2 2 5 4 3 4 3 4 4 3 3 3 3 4 4 4 6 7 6 8 10 10 10 11 9 7 7 7 7 10 10 9 8 4 2 8 12 9 9 13 12 11 10
7 8 9 10 11 12 14 15 14 12 10 8 8 7 6 7 7 7 8 8 7 9 9 7 7 8 9 8 9 9 7 7 8 6 4 5 6 5 4 5 6 4 4 5 4 3 4 4 4 5 5 4 4 3 3 4 4 5 5 4 5 7 7 8 10 9 9 11 9 7 7 7 7 9 10 9 9 7 3 5 9 8 9 13 13 12 11
7 9 10 10 12 13 15 16 15 13 11 9 8 7 7 8 8 8 9 8 7 8 9 9 7 6 7 7 7 8 7 6 7 6 5 3 4 6 4 3 5 5 4 5 4 4 5 4 4 5 6 4 4 3 3 3 4 5 6 5 5 7 8 9 10 10 10 11 10 7 6 7 6 8 10 10 9 8 4 3 7 8 8 11 12 12 13
7 9 10 10 11 13 15 15 15 14 12 11 11 9 8 9 9 9 9 8 8 8 8 9 9 7 7 7 6 6 6 6 6 7 6 4 3 5 5 3 4 5 4 5 5 4 5 5 5 6 5 5 6 5 4 3 3 5 7 6 5 7 9 9 9 9 10 10 10 9 7 6 6 8 10 10 10 9 5 3 6 8 8 8 10 13 14
8 9 9 10 11 13 14 14 14 14 13 12 12 11 10 11 11 10 10 9 9 9 7 7 8 8 7 7 7 6 5 4 5 6 6 5 4 4 5 4 4 4 4 5 5 5 6 5 5 6 5 6 7 5 5 5 3 4 7 7 5 7 9 9 8 9 10 10 10 10 8 6 6 8 9 10 9 9 8 6 5 6 7 8 9 12 14
8 10 10 10 11 12 12 12 12 13 12 12 12 11 10 12 12 11 10 10 10 9 7 6 7 8 7 5 7 8 6 5 4 4 5 5 5 6 5 4 5 5 5 5 5 5 6 5 5 6 5 5 7 6 6 7 5 4 7 8 5 6 9 10 9 8 10 10 9 8 9 7 7 7 9 11 11 9 8 8 5 5 7 8 8 11 14
8 10 10 9 10 10 10 9 10 11 10 11 12 10 8 12 14 11 10 11 10 8 8 7 7 8 8 5 5 7 7 6 6 5 5 4 5 6 6 5 5 5 5 6 6 5 6 5 5 7 5 4 6 6 6 8 6 4 7 8 7 7 9 10 9 8 9 10 9 8 9 9 9 7 7 9 12 10 9 9 7 5 6 7 8 11 14
8 9 9 9 8 9 9 8 9 9 9 10 10 9 8 11 13 12 10 11 11 9 8 9 7 8 9 7 5 6 6 6 6 7 6 5 5 6 6 6 7 6 5 6 6 5 6 5 5 7 6 5 6 6 7 8 7 5 8 10 8 7 9 10 9 9 9 10 9 8 8 8 9 9 6 7 10 11 9 8 8 7 6 7 8 9 12
8 9 9 8 8 8 9 8 7 7 8 9 9 9 8 9 12 13 12 12 12 11 9 9 8 8 9 8 7 8 7 6 7 7 8 7 6 6 7 6 7 7 6 6 6 6 6 6 6 7 7 6 7 8 8 9 7 7 9 11 8 7 10 10 9 9 10 10 9 8 7 6 8 9 8 7 9 11 10 8 8 8 8 7 7 8 10
8 8 8 8 7 7 6 6 6 7 7 8 8 9 9 9 11 14 13 12 13 13 10 9 10 10 10 9 9 10 9 8 8 8 8 9 9 8 8 8 7 8 8 7 8 8 8 8 8 9 9 9 9 10 10 10 9 8 10 10 8 8 10 10 9 8 9 9 8 8 7 6 7 9 10 8 8 10 11 9 8 8 9 8 7 8 10
7 7 7 7 6 6 6 6 7 8 8 9 9 9 10 9 10 14 15 13 13 14 12 10 11 12 12 11 11 12 11 11 11 11 10 11 11 10 10 11 10 10 11 10 11 11 11 11 11 11 11 12 12 12 12 11 10 10 10 10 9 9 10 10 9 8 8 9 9 8 8 7 7 9 10 8 7 10 11 10 9 8 9 10 8 7 9
7 7 7 7 7 7 7 7 8 9 9 9 9 8 9 9 10 12 15 14 13 14 14 12 12 13 13 11 11 12 13 13 12 11 11 12 12 11 12 12 12 12 13 12 12 12 12 13 13 13 14 15 15 15 13 11 12 12 11 10 9 9 10 9 10 10 8 9 10 8 7 7 6 7 10 8 6 8 10 11 10 8 9 10 9 8 10
8 7 7 8 8 9 9 8 9 10 10 9 9 8 9 10 10 11 14 14 13 13 14 14 13 13 12 11 11 13 14 13 12 12 12 11 10 11 11 11 12 12 11 10 11 12 13 13 13 14 15 15 17 18 14 13 14 13 12 11 9 10 10 9 9 11 9 8 10 8 7 8 6 6 10 9 6 6 10 11 10 8 9 10 9 9 10
9 9 9 9 8 9 9 9 9 10 10 10 10 10 10 11 12 11 11 13 13 13 13 14 15 14 12 11 12 14 14 12 12 14 13 11 10 11 12 11 12 12 11 11 12 12 12 13 13 14 14 14 18 19 15 14 17 15 13 13 10 9 10 9 9 12 10 8 9 9 7 9 8 6 9 10 8 6 8 11 11 8 8 10 10 9 10
9 8 8 8 8 8 8 8 7 8 9 9 9 10 10 10 10 10 10 11 12 12 13 14 15 15 12 11 13 15 13 12 14 15 13 11 12 12 11 11 11 11 10 11 11 10 10 11 10 11 12 12 16 18 14 15 19 16 14 16 13 10 11 10 9 11 12 9 9 8 7 8 8 6 7 9 9 7 7 10 11 9 7 10 11 10 10
7 7 7 7 7 7 6 7 6 6 7 7 7 8 9 8 7 9 10 10 11 11 12 13 13 13 12 11 14 16 13 12 16 15 12 11 13 13 11 11 10 9 9 10 10 8 9 9 8 9 9 9 13 15 13 16 21 17 14 16 16 12 12 12 10 11 12 10 9 8 7 7 7 6 6 8 9 8 7 8 11 10 8 9 11 10 11
5 6 6 6 6 6 5 5 5 5 5 6 5 5 6 5 6 7 7 7 8 9 11 11 11 11 12 11 13 15 12 12 16 15 12 13 15 14 13 13 11 9 9 10 9 7 8 8 7 8 8 7 10 12 10 13 19 18 15 17 18 14 12 13 11 10 11 11 11 10 7 7 7 6 6 7 8 8 7 8 10 10 8 8 10 11 10
5 5 4 4 4 5 5 5 5 5 5 5 4 3 4 4 4 4 4 5 5 5 7 9 8 10 11 10 11 13 10 10 15 14 12 14 15 14 13 15 12 10 11 12 9 7 8 8 7 7 7 6 8 10 8 9 14 16 15 17 19 16 15 14 12 11 11 11 11 11 8 7 7 6 5 6 8 8 8 8 9 10 8 7 9 11 11
3 4 4 4 4 4 5 5 6 5 5 6 5 4 4 5 5 4 4 4 4 4 4 5 5 7 8 8 10 12 10 10 13 13 11 13 15 13 14 15 13 11 13 14 11 9 9 9 8 7 7 6 7 9 8 7 10 13 13 15 17 17 16 16 14 13 12 11 11 11 9 7 7 7 6 6 7 8 8 7 8 10 9 7 8 11 11
3 3 4 4 4 4 4 5 5 5 5 6 6 5 5 5 6 6 5 4 5 4 4 3 3 4 5 5 7 10 10 9 11 12 10 11 13 13 14 15 13 13 15 15 12 11 11 11 10 9 8 7 7 8 7 7 8 10 11 13 14 15 16 16 15 14 13 12 11 11 10 8 8 7 6 6 7 8 8 7 8 9 9 8 8 10 10
4 4 3 3 4 5 4 3 4 5 5 5 5 5 5 4 4 6 6 5 5 5 5 4 3 3 4 3 3 6 8 8 9 11 10 10 11 11 13 14 12 14 17 15 12 12 12 11 11 11 10 9 9 8 8 7 7 8 10 11 13 14 16 17 17 15 14 14 13 12 10 9 8 7 6 6 6 7 7 7 7 9 9 8 8 9 10
4 4 4 3 3 4 4 3 3 3 4 4 3 5 6 4 3 5 6 5 4 5 6 5 4 3 5 4 2 3 5 5 6 8 9 10 10 10 11 12 11 13 16 15 13 14 13 11 11 12 11 11 11 9 9 9 7 7 8 10 11 13 14 16 18 17 15 14 14 13 11 9 8 7 6 6 6 7 7 7 7 8 9 8 8 8 9
3 3 4 4 4 3 3 3 3 2 3 4 3 3 5 5 4 4 6 6 4 4 5 6 4 4 6 5 2 3 4 4 4 5 7 8 9 9 10 10 9 11 15 14 13 15 15 12 11 12 11 11 12 10 9 9 9 8 8 9 10 11 12 14 17 18 16 15 15 14 13 10 9 7 7 6 7 7 7 7 6 7 9 9 8 8 9
3 3 4 3 4 4 2 3 3 2 1 4 4 3 3 5 5 4 5 6 5 4 5 6 4 4 6 6 4 4 4 3 3 4 4 5 7 8 9 9 7 9 13 12 11 16 17 13 11 12 11 10 11 12 10 11 11 9 8 8 8 9 11 13 15 17 17 17 16 16 14 11 9 8 7 6 7 7 7 7 6 6 8 9 8 8 9
2 3 4 3 3 4 2 1 3 2 0 3 5 3 2 4 5 4 4 6 6 5 6 6 5 4 5 5 5 5 5 4 4 4 3 3 5 6 8 8 7 9 10 8 8 15 19 14 11 12 11 9 10 12 11 12 13 11 9 9 8 8 10 13 14 16 18 17 16 16 15 13 10 8 7 7 7 7 7 7 6 6 8 9 8 8 9
2 3 4 2 2 4 2 1 3 3 1 2 4 4 2 4 5 4 4 5 6 6 6 7 6 5 5 5 4 4 6 6 5 5 3 2 4 5 6 6 8 9 8 6 7 13 17 16 12 11 10 9 10 11 12 12 13 13 12 10 9 7 9 11 14 17 19 18 16 16 15 13 11 9 8 7 8 7 8 7 6 6 8 9 8 8 8
2 2 3 1 1 3 3 1 2 3 2 2 3 4 3 3 4 5 4 4 6 6 5 7 7 6 5 5 4 4 5 5 6 7 5 2 3 6 5 4 7 9 6 4 6 10 15 17 14 11 10 9 9 10 11 12 13 14 14 12 10 7 7 9 12 17 19 19 18 17 15 13 12 10 8 7 7 8 8 7 6 6 7 8 9 8 8
3 2 2 1 1 3 3 2 2 2 2 2 2 4 4 3 3 5 5 3 5 6 5 6 8 7 5 5 4 4 4 4 5 8 7 2 4 7 4 2 6 9 6 4 6 7 11 16 17 12 9 9 9 9 10 11 12 13 14 13 12 9 7 8 11 15 19 19 19 18 17 14 12 11 9 7 7 8 8 8 6 6 7 8 9 8 8
4 3 1 1 2 3 4 3 2 2 3 3 2 4 4 3 3 5 3 2 5 7 5 4 7 7 7 6 5 4 4 4 5 7 7 4 4 6 4 3 6 7 5 5 6 6 7 13 16 14 11 9 9 9 9 10 11 12 13 14 13 11 8 7 9 13 18 19 19 19 18 15 13 11 9 8 8 9 8 8 7 6 7 8 9 8 8
5 3 1 1 2 3 3 4 3 2 4 3 2 4 5 3 4 5 3 1 4 7 5 4 6 7 6 7 7 5 3 3 4 6 6 5 5 6 5 4 5 5 5 6 6 5 5 10 14 14 13 10 8 9 9 9 10 12 12 13 14 13 10 8 7 11 16 19 19 20 19 16 13 11 9 8 9 10 8 8 7 6 6 8 9 8 8
5 3 0 1 3 3 3 3 3 4 4 3 2 4 4 3 3 5 4 2 4 6 4 4 6 7 6 7 7 5 4 4 4 4 5 6 7 6 5 5 4 4 5 6 5 3 4 7 11 14 14 11 9 9 9 9 10 11 12 12 13 14 12 9 7 9 14 18 20 21 20 17 15 12 9 7 9 10 9 8 7 6 7 8 9 8 8
5 2 0 1 4 4 3 3 4 4 4 3 3 4 4 3 3 4 3 2 4 6 5 4 5 6 6 7 7 5 4 5 4 3 4 7 7 6 6 6 5 4 4 6 5 4 4 6 9 13 14 13 10 9 9 9 10 11 11 12 13 14 13 10 7 8 12 17 20 21 21 19 16 12 9 7 8 10 10 9 7 6 7 8 9 8 8
3 1 0 1 3 3 3 3 4 4 4 4 3 3 3 3 3 3 3 3 5 6 5 5 5 5 6 7 7 5 5 5 4 3 4 6 7 6 6 7 6 4 4 5 6 5 3 4 7 10 13 13 12 10 10 10 10 11 11 12 13 14 14 12 8 7 10 15 19 21 22 21 17 12 9 7 8 10 11 9 7 6 8 9 9 8 7
1 0 0 1 2 2 3 3 3 4 4 4 3 3 2 2 2 3 2 3 4 5 6 6 6 5 6 7 7 5 5 6 5 4 4 5 6 6 7 8 6 4 4 5 6 5 4 4 5 8 11 14 13 11 10 10 10 11 11 11 12 14 15 12 9 7 8 13 18 21 22 21 18 13 9 7 8 10 12 10 7 6 8 9 9 8 7
-0 0 1 1 1 2 3 3 3 4 4 3 2 3 2 2 2 3 3 2 4 5 6 6 7 6 5 6 7 6 5 6 5 4 4 5 5 6 7 7 7 6 5 4 5 5 4 3 4 5 8 12 14 13 11 11 11 11 11 11 12 14 14 13 10 7 7 12 18 21 22 22 18 14 10 8 8 9 11 11 8 6 8 10 10 8 6
-0 0 2 2 1 2 3 4 3 3 3 2 2 3 3 1 2 3 3 3 4 5 5 6 7 7 5 6 6 6 5 6 6 5 5 5 5 6 7 7 6 7 6 5 5 6 5 3 3 4 6 10 14 14 12 11 11 11 11 11 12 14 14 13 11 8 7 11 17 21 22 21 19 14 10 9 9 9 11 11 8 6 8 11 11 8 6
1 1 2 3 2 2 3 3 3 3 3 3 2 3 3 2 2 3 3 3 4 5 5 6 7 7 6 6 6 5 5 7 7 5 5 6 6 6 8 7 7 7 7 5 5 6 5 3 3 3 4 8 13 15 13 12 11 11 11 11 12 13 14 13 12 9 8 10 15 21 22 21 19 15 11 9 10 10 10 10 8 7 8 11 11 8 5
3 3 3 4 3 3 3 3 3 3 4 3 2 2 3 2 2 3 3 4 6 7 5 5 7 7 7 7 6 3 4 7 8 6 5 6 7 7 8 7 7 7 7 5 5 6 4 4 4 3 2 5 12 15 14 12 11 11 11 12 11 13 14 13 12 11 9 9 14 20 22 20 19 16 12 10 10 11 10 9 8 7 9 12 12 8 5
4 3 3 3 3 3 3 2 2 4 4 2 1 2 3 2 3 3 3 4 7 8 6 5 7 7 7 8 6 2 3 7 8 6 6 6 7 7 8 8 8 7 6 5 6 6 4 4 5 3 1 4 10 15 15 14 12 11 12 12 11 12 13 13 12 12 10 9 13 19 22 21 19 16 12 10 10 11 11 10 8 7 10 13 12 8 6
Height
5785 5784 5782 5781 5779 5777 5775 5773 5772 5770 5768 5766 5764 5762 5760 5758 5756 5754 5753 5751 5750 5748 5746 5745 5743 5741 5739 5737 5735 5733 5731 5729 5727 5725 5723 5721 5719 5717 5715 5713 5711 5709 5707 5705 5703 5701 5699 5697 5696 5694 5692 5690 5688 5686 5684 5682 5679 5677 5675 5672 5670 5667 5664 5661 5658 5655 5652 5648 5645 5642 5638 5634 5630 5626 5623 5619 5615 5610 5606 5601 5597 5592 5588 5584 5580 5575 5570
5785 5784 5782 5780 5778 5777 5775 5773 5771 5769 5768 5766 5764 5762 5760 5759 5757 5755 5754 5752 5750 5749 5747 5745 5743 5741 5739 5737 5735 5733 5731 5729 5727 5725 5723 5721 5720 5718 5716 5714 5712 5710 5708 5706 5704 5702 5700 5699 5697 5695 5693 5691 5689 5687 5684 5682 5679 5677 5674 5671 5669 5666 5663 5659 5656 5653 5649 5645 5641 5637 5634 5631 5628 5624 5620 5616 5612 5607 5602 5598 5593 5588 5584 5580 5575 5570 5566
5785 5783 5782 5780 5779 5777 5775 5773 5772 5770 5768 5766 5765 5763 5761 5759 5758 5756 5755 5753 5751 5749 5747 5746 5744 5742 5740 5738 5735 5733 5731 5729 5728 5726 5724 5722 5720 5718 5717 5715 5712 5710 5708 5706 5705 5703 5701 5699 5697 5695 5693 5691 5689 5687 5684 5682 5679 5676 5674 5671 5668 5665 5661 5658 5655 5651 5647 5643 5639 5635 5632 5628 5625 5622 5619 5614 5609 5605 5600 5595 5589 5584 5581 5577 5572 5567 5563
5785 5784 5782 5781 5779 5777 5776 5774 5772 5770 5769 5767 5766 5764 5762 5760 5759 5757 5755 5754 5752 5750 5748 5746 5744 5742 5740 5738 5736 5734 5732 5730 5728 5727 5725 5723 5721 5719 5717 5715 5713 5711 5709 5707 5706 5704 5702 5700 5698 5696 5694 5692 5689 5687 5685 5682 5679 5676 5673 5670 5667 5664 5661 5657 5653 5650 5646 5642 5638 5634 5631 5627 5623 5620 5616 5612 5607 5602 5597 5592 5587 5582 5578 5574 5569 5563 5559
5786 5784 5783 5781 5779 5778 5776 5775 5773 5771 5770 5768 5767 5765 5763 5762 5760 5758 5756 5754 5753 5751 5749 5747 5745 5743 5741 5739 5737 5735 5733 5731 5729 5727 5726 5724 5722 5720 5718 5715 5713 5712 5710 5708 5706 5704 5702 5700 5698 5696 5694 5692 5690 5687 5684 5682 5679 5676 5673 5670 5666 5663 5659 5656 5652 5649 5645 5641 5637 5633 5629 5625 5621 5617 5614 5610 5605 5599 5595 5589 5584 5579 5574 5571 5567 5561 5555
5786 5785 5783 5782 5780 5779 5777 5776 5774 5773 5771 5769 5767 5766 5764 5762 5761 5759 5757 5755 5753 5752 5750 5748 5746 5744 5742 5740 5738 5736 5734 5732 5730 5728 5727 5725 5723 5721 5718 5716 5714 5713 5711 5709 5707 5705 5703 5701 5699 5697 5694 5692 5690 5687 5684 5682 5679 5676 5673 5669 5665 5662 5658 5655 5651 5647 5643 5640 5636 5632 5628 5623 5619 5615 5611 5607 5602 5597 5592 5586 5581 5577 5571 5566 5562 5558 5552
5787 5785 5784 5782 5781 5780 5778 5777 5775 5773 5772 5770 5768 5767 5765 5763 5762 5760 5758 5756 5754 5752 5750 5749 5747 5745 5743 5741 5739 5737 5735 5733 5731 5729 5727 5725 5723 5721 5719 5717 5716 5714 5712 5710 5708 5706 5704 5702 5700 5697 5695 5692 5690 5687 5684 5681 5678 5675 5672 5668 5664 5661 5657 5653 5650 5646 5642 5638 5634 5630 5626 5621 5617 5613 5608 5604 5599 5594 5589 5583 5578 5573 5568 5563 5557 5553 5548
5787 5786 5785 5783 5782 5780 5779 5777 5776 5774 5772 5771 5770 5768 5766 5764 5762 5761 5759 5757 5755 5753 5751 5750 5748 5746 5744 5742 5740 5738 5736 5734 5732 5730 5728 5726 5724 5722 5720 5719 5717 5715 5713 5711 5709 5707 5705 5702 5700 5698 5695 5692 5689 5687 5684 5680 5677 5674 5670 5667 5663 5659 5656 5652 5648 5644 5640 5636 5632 5627 5623 5618 5614 5610 5605 5601 5597 5592 5586 5580 5574 5569 5565 5559 5554 5548 5543
5788 5787 5785 5784 5783 5781 5780 5778 5776 5775 5773 5772 5770 5769 5767 5765 5763 5761 5760 5758 5756 5754 5753 5751 5749 5747 5745 5743 5741 5739 5737 5735 5733 5731 5729 5727 5725 5723 5722 5720 5718 5716 5714 5712 5709 5707 5705 5703 5700 5698 5695 5692 5689 5686 5683 5679 5676 5673 5669 5665 5662 5658 5654 5650 5646 5642 5637 5633 5629 5624 5620 5615 5611 5606 5601 5597 5593 5588 5582 5576 5570 5565 5561 5556 5551 5544 5538
5789 5787 5786 5785 5783 5782 5780 5779 5777 5776 5774 5773 5771 5769 5768 5766 5764 5762 5761 5759 5757 5755 5754 5751 5749 5747 5746 5744 5742 5740 5738 5736 5734 5732 5730 5728 5727 5725 5723 5721 5719 5717 5714 5712 5710 5708 5705 5703 5700 5697 5694 5691 5688 5685 5682 5678 5675 5671 5667 5664 5660 5656 5652 5648 5643 5639 5634 5630 5625 5621 5617 5612 5607 5602 5598 5594 5589 5584 5580 5574 5567 5561 5556 5551 5546 5540 5534
5790 5788 5787 5785 5784 5782 5781 5779 5778 5776 5775 5773 5772 5770 5768 5767 5765 5763 5761 5759 5758 5756 5754 5752 5750 5748 5747 5745 5743 5741 5739 5737 5735 5733 5731 5729 5727 5726 5724 5721 5719 5717 5715 5712 5710 5708 5705 5703 5700 5697 5694 5691 5688 5684 5681 5677 5673 5670 5666 5661 5658 5654 5649 5645 5641 5637 5632 5628 5623 5619 5615 5610 5605 5600 5596 5591 5586 5581 5577 5572 5565 5559 5553 5548 5542 5537 5531
5790 5789 5788 5786 5784 5783 5781 5780 5778 5777 5775 5774 5772 5771 5769 5767 5766 5764 5762 5760 5758 5757 5755 5753 5751 5749 5748 5746 5744 5742 5740 5738 5736 5734 5732 5730 5728 5726 5724 5722 5719 5717 5715 5712 5710 5708 5705 5702 5699 5696 5693 5690 5686 5683 5679 5675 5672 5668 5663 5659 5655 5651 5647 5642 5638 5634 5630 5626 5621 5616 5611 5606 5602 5597 5592 5588 5583 5579 5575 5571 5564 5557 5552 5546 5540 5534 5528
5791 5790 5788 5787 5785 5783 5782 5780 5779 5777 5776 5775 5773 5771 5770 5768 5766 5765 5763 5761 5759 5757 5755 5753 5752 5750 5748 5746 5744 5742 5741 5739 5737 5735 5733 5731 5728 5726 5724 5722 5719 5717 5715 5712 5710 5707 5704 5702 5698 5695 5692 5688 5685 5681 5677 5674 5670 5666 5661 5657 5653 5648 5644 5640 5635 5631 5626 5622 5618 5613 5609 5605 5600 5595 5590 5585 5581 5576 5572 5569 5562 5554 5548 5542 5536 5531 5525
5792 5790 5789 5787 5786 5784 5782 5781 5779 5778 5776 5775 5774 5772 5770 5769 5767 5765 5763 5762 5760 5758 5756 5754 5753 5751 5749 5747 5745 5743 5741 5739 5737 5735 5733 5731 5729 5726 5724 5722 5719 5717 5715 5712 5709 5707 5704 5701 5697 5694 5691 5687 5683 5680 5676 5672 5668 5664 5660 5655 5650 5646 5641 5637 5632 5627 5623 5619 5614 5610 5606 5601 5597 5592 5586 5581 5576 5571 5566 5562 5558 5551 5544 5539 5532 5526 5520
5793 5791 5790 5788 5786 5784 5783 5781 5780 5778 5777 5776 5774 5773 5771 5769 5768 5766 5764 5762 5761 5759 5757 5755 5753 5751 5750 5748 5746 5744 5742 5739 5737 5735 5733 5731 5729 5726 5724 5722 5719 5717 5714 5711 5709 5706 5703 5699 5696 5692 5689 5685 5681 5678 5674 5670 5666 5662 5657 5652 5648 5643 5639 5634 5629 5624 5619 5615 5611 5606 5601 5597 5592 5588 5582 5577 5572 5567 5561 5556 5553 5548 5541 5535 5528 5521 5515
5793 5792 5790 5789 5787 5785 5783 5782 5780 5779 5778 5776 5775 5773 5772 5770 5768 5767 5765 5763 5761 5759 5758 5756 5754 5752 5750 5748 5746 5744 5742 5740 5738 5735 5733 5731 5729 5726 5724 5721 5719 5716 5713 5711 5708 5705 5701 5698 5694 5691 5687 5683 5679 5676 5672 5668 5664 5659 5655 5650 5646 5641 5636 5631 5627 5622 5617 5612 5607 5602 5598 5593 5589 5584 5579 5573 5568 5563 5557 5552 5547 5542 5535 5529 5523 5516 5510
5794 5793 5791 5789 5788 5786 5784 5782 5781 5780 5778 5777 5775 5774 5773 5771 5769 5767 5765 5764 5762 5760 5758 5756 5754 5753 5751 5748 5746 5744 5742 5740 5738 5735 5733 5731 5728 5726 5723 5721 5718 5715 5713 5710 5706 5703 5700 5696 5693 5689 5685 5681 5677 5674 5670 5665 5661 5657 5653 5648 5644 5639 5634 5629 5624 5619 5614 5610 5605 5600 5595 5590 5585 5580 5575 5570 5564 5559 5553 5547 5541 5536 5529 5523 5518 5511 5505
5795 5794 5792 5790 5789 5787 5785 5783 5782 5781 5779 5778 5776 5775 5773 5771 5769 5768 5766 5764 5762 5760 5758 5757 5755 5753 5751 5748 5746 5744 5742 5740 5737 5735 5733 5730 5728 5725 5723 5720 5717 5714 5711 5708 5705 5702 5698 5695 5691 5687 5683 5679 5675 5671 5667 5663 5658 5654 5650 5645 5641 5636 5631 5626 5621 5617 5612 5607 5602 5598 5593 5587 5582 5577 5572 5566 5561 5555 5549 5542 5536 5531 5525 5518 5512 5506 5500
5796 5795 5793 5791 5790 5788 5786 5785 5783 5782 5780 5779 5777 5775 5774 5772 5770 5768 5766 5764 5762 5760 5759 5757 5755 5753 5751 5748 5746 5744 5742 5740 5737 5735 5732 5730 5727 5725 5722 5719 5716 5713 5710 5707 5703 5700 5696 5693 5689 5685 5681 5677 5673 5669 5664 5660 5655 5651 5647 5642 5637 5633 5628 5623 5618 5613 5609 5604 5599 5594 5590 5584 5579 5574 5568 5562 5556 5550 5544 5538 5532 5526 5521 5515 5508 5502 5496
5797 5795 5794 5792 5791 5789 5788 5786 5785 5783 5781 5779 5778 5776 5775 5773 5771 5769 5767 5765 5763 5761 5759 5757 5755 5753 5751 5748 5746 5744 5741 5739 5737 5734 5732 5729 5726 5724 5721 5718 5715 5712 5708 5705 5702 5698 5694 5691 5687 5683 5679 5675 5671 5667 5662 5658 5653 5648 5643 5639 5634 5629 5624 5620 5615 5610 5605 5600 5595 5589 5585 5580 5575 5569 5564 5559 5553 5547 5541 5536 5530 5523 5518 5512 5506 5499 5493
5798 5796 5795 5793 5792 5790 5789 5787 5786 5784 5782 5780 5779 5778 5776 5773 5771 5769 5767 5765 5763 5761 5760 5757 5755 5753 5750 5748 5746 5744 5741 5738 5736 5733 5731 5728 5725 5722 5720 5717 5713 5710 5707 5703 5700 5696 5692 5689 5685 5681 5677 5673 5668 5664 5659 5655 5650 5646 5641 5636 5631 5626 5621 5616 5612 5606 5601 5596 5591 5585 5580 5576 5571 5565 5559 5554 5549 5544 5538 5532 5527 5521 5515 5508 5502 5496 5490
5798 5797 5796 5794 5793 5792 5790 5789 5787 5785 5784 5782 5781 5779 5776 5774 5772 5770 5767 5765 5763 5762 5760 5757 5755 5752 5750 5748 5746 5743 5740 5738 5735 5733 5730 5727 5724 5721 5718 5715 5712 5709 5705 5701 5698 5694 5690 5686 5683 5679 5674 5670 5666 5661 5656 5651 5647 5642 5638 5633 5628 5624 5619 5614 5609 5604 5599 5594 5589 5583 5578 5573 5568 5564 5558 5552 5546 5541 5535 5529 5523 5518 5512 5505 5499 5493 5487
5799 5798 5797 5795 5794 5793 5791 5790 5788 5787 5785 5783 5781 5779 5776 5774 5772 5770 5767 5766 5764 5762 5759 5757 5755 5752 5750 5747 5745 5742 5740 5737 5734 5732 5729 5726 5723 5720 5717 5714 5710 5707 5703 5700 5696 5692 5688 5684 5680 5676 5672 5667 5663 5658 5654 5649 5644 5639 5635 5630 5626 5621 5616 5611 5607 5602 5597 5592 5587 5582 5577 5571 5566 5561 5556 5550 5544 5538 5532 5527 5520 5515 5509 5503 5496 5490 5484
5800 5799 5798 5796 5795 5794 5792 5791 5789 5787 5786 5784 5782 5779 5777 5775 5773 5771 5769 5767 5764 5762 5759 5757 5755 5752 5750 5747 5744 5742 5739 5736 5733 5731 5728 5725 5722 5718 5715 5712 5709 5705 5702 5698 5694 5690 5686 5682 5678 5673 5669 5665 5660 5655 5650 5646 5641 5636 5631 5627 5623 5618 5613 5609 5604 5599 5594 5589 5585 5579 5574 5569 5563 5558 5553 5548 5542 5536 5530 5524 5518 5512 5506 5500 5494 5487 5481
5801 5800 5799 5798 5796 5795 5793 5792 5790 5788 5786 5784 5782 5781 5778 5776 5774 5772 5769 5767 5764 5762 5760 5757 5755 5752 5750 5747 5744 5741 5739 5736 5733 5730 5727 5724 5721 5717 5714 5711 5707 5704 5700 5696 5693 5689 5684 5680 5675 5671 5666 5662 5658 5653 5647 5643 5638 5634 5629 5624 5619 5615 5610 5605 5601 5596 5591 5586 5582 5576 5571 5566 5561 5555 5550 5544 5539 5534 5528 5522 5516 5510 5504 5498 5491 5485 5478
5802 5801 5800 5799 5798 5796 5795 5793 5791 5789 5788 5786 5784 5782 5779 5777 5775 5772 5770 5767 5765 5763 5760 5758 5755 5752 5750 5747 5744 5741 5738 5735 5732 5729 5726 5723 5720 5717 5713 5710 5706 5702 5699 5695 5691 5687 5682 5678 5673 5669 5664 5660 5655 5651 5645 5640 5636 5631 5626 5621 5616 5611 5607 5602 5598 5593 5588 5583 5579 5574 5569 5565 5559 5554 5548 5542 5536 5531 5525 5519 5513 5507 5501 5495 5489 5483 5476
5803 5802 5801 5800 5798 5797 5796 5794 5792 5791 5789 5787 5785 5783 5780 5778 5775 5773 5770 5768 5766 5763 5761 5758 5755 5753 5750 5748 5745 5741 5738 5735 5732 5729 5726 5722 5719 5716 5712 5709 5705 5701 5697 5693 5689 5685 5681 5676 5672 5667 5662 5657 5653 5649 5643 5638 5633 5628 5623 5619 5613 5608 5604 5599 5594 5590 5585 5579 5574 5570 5565 5561 5556 5550 5545 5539 5534 5528 5522 5516 5510 5504 5498 5492 5486 5479 5473
5803 5803 5802 5801 5799 5798 5797 5795 5793 5792 5790 5788 5786 5783 5781 5778 5776 5774 5771 5769 5766 5764 5761 5759 5756 5753 5751 5748 5745 5741 5738 5735 5732 5728 5725 5722 5718 5715 5711 5707 5704 5700 5696 5692 5688 5683 5679 5674 5670 5665 5660 5655 5651 5646 5641 5636 5631 5625 5620 5616 5611 5605 5601 5595 5590 5586 5581 5576 5571 5566 5561 5557 5552 5547 5541 5535 5530 5524 5518 5512 5506 5500 5495 5488 5482 5475 5468
5804 5803 5802 5801 5800 5799 5797 5796 5794 5793 5791 5789 5786 5784 5781 5779 5777 5775 5772 5769 5767 5765 5762 5759 5756 5754 5751 5748 5745 5742 5738 5735 5732 5728 5725 5721 5717 5714 5710 5706 5702 5699 5695 5690 5686 5682 5677 5673 5668 5663 5658 5653 5648 5644 5638 5633 5628 5623 5618 5613 5608 5603 5598 5593 5587 5582 5578 5573 5568 5563 5558 5553 5548 5543 5538 5532 5526 5521 5515 5509 5503 5497 5491 5485 5478 5472 5465
5805 5804 5803 5802 5801 5800 5798 5797 5795 5793 5791 5789 5786 5784 5782 5780 5778 5776 5773 5771 5768 5765 5763 5760 5757 5754 5751 5748 5745 5742 5738 5735 5731 5728 5724 5721 5717 5713 5709 5705 5701 5697 5693 5689 5685 5680 5675 5671 5666 5661 5656 5651 5646 5641 5636 5631 5626 5621 5615 5610 5605 5600 5595 5590 5584 5579 5575 5570 5565 5560 5555 5550 5545 5540 5534 5529 5523 5517 5511 5506 5499 5493 5487 5481 5475 5468 5462
5806 5805 5804 5803 5802 5800 5799 5797 5795 5794 5792 5790 5788 5786 5784 5781 5779 5777 5774 5772 5769 5766 5763 5761 5758 5755 5752 5748 5745 5741 5738 5734 5731 5728 5724 5720 5716 5712 5708 5704 5700 5696 5692 5687 5683 5678 5674 5669 5664 5659 5654 5649 5644 5639 5633 5628 5624 5619 5613 5608 5603 5597 5592 5587 5582 5576 5571 5567 5563 5558 5552 5547 5542 5537 5532 5526 5520 5514 5508 5502 5496 5490 5484 5478 5472 5465 5459
5806 5806 5805 5804 5802 5801 5799 5798 5796 5794 5793 5790 5788 5786 5784 5782 5780 5777 5775 5772 5769 5767 5764 5761 5758 5755 5751 5748 5744 5741 5738 5734 5731 5727 5723 5720 5715 5711 5707 5703 5699 5694 5690 5686 5682 5677 5672 5667 5662 5657 5652 5647 5642 5637 5631 5625 5620 5616 5610 5605 5600 5595 5589 5584 5579 5574 5569 5564 5559 5555 5550 5544 5539 5534 5529 5523 5518 5512 5506 5500 5494 5488 5481 5475 5469 5462 5456
5807 5806 5805 5804 5803 5801 5800 5798 5797 5795 5793 5791 5789 5787 5784 5782 5780 5778 5775 5772 5770 5767 5764 5761 5757 5754 5751 5747 5744 5741 5738 5734 5730 5727 5723 5719 5715 5710 5706 5702 5698 5693 5689 5684 5680 5675 5670 5665 5660 5655 5650 5644 5639 5634 5629 5623 5618 5613 5607 5602 5597 5591 5586 5581 5576 5571 5566 5561 5555 5551 5546 5541 5536 5531 5525 5520 5514 5508 5502 5496 5490 5484 5478 5472 5465 5459 5453
5807 5807 5806 5804 5803 5802 5800 5799 5797 5795 5793 5791 5789 5787 5785 5783 5780 5778 5775 5773 5770 5767 5764 5761 5757 5754 5751 5747 5744 5741 5737 5733 5730 5726 5722 5718 5714 5710 5705 5701 5696 5692 5687 5683 5678 5673 5668 5663 5658 5653 5648 5642 5636 5632 5627 5621 5616 5610 5605 5600 5594 5589 5583 5578 5573 5567 5562 5557 5552 5547 5542 5537 5532 5527 5522 5516 5511 5505 5499 5493 5487 5481 5474 5468 5462 5456 5449
5808 5807 5806 5805 5803 5802 5801 5799 5797 5795 5793 5791 5789 5787 5785 5783 5780 5778 5775 5772 5770 5767 5763 5760 5757 5754 5751 5747 5744 5740 5736 5732 5728 5724 5720 5717 5713 5708 5704 5700 5695 5690 5686 5681 5676 5671 5666 5661 5656 5650 5645 5640 5634 5629 5624 5618 5613 5608 5602 5597 5592 5586 5580 5575 5570 5564 5559 5554 5549 5544 5539 5534 5529 5524 5519 5513 5508 5502 5496 5490 5484 5478 5471 5465 5458 5452 5446
5808 5807 5806 5805 5803 5802 5801 5799 5797 5795 5793 5791 5789 5787 5785 5782 5780 5777 5775 5772 5769 5766 5763 5760 5756 5753 5750 5746 5743 5739 5735 5731 5727 5723 5719 5715 5711 5707 5703 5698 5694 5689 5684 5679 5674 5669 5664 5658 5653 5648 5642 5637 5632 5626 5621 5616 5610 5605 5600 5594 5589 5583 5578 5572 5567 5562 5556 5551 5545 5540 5535 5530 5525 5520 5515 5510 5505 5499 5493 5487 5481 5475 5468 5462 5455 5449 5442
5808 5807 5806 5804 5803 5802 5800 5799 5797 5795 5793 5791 5789 5786 5784 5782 5779 5777 5774 5771 5768 5765 5762 5759 5756 5752 5749 5745 5742 5738 5734 5730 5726 5722 5718 5714 5710 5706 5701 5697 5692 5687 5682 5677 5672 5667 5662 5656 5651 5646 5640 5635 5630 5624 5619 5613 5608 5602 5597 5592 5586 5581 5575 5569 5564 5558 5553 5547 5542 5537 5532 5527 5522 5517 5512 5507 5501 5496 5490 5484 5478 5472 5465 5459 5452 5446 5439
5807 5806 5805 5804 5803 5801 5800 5798 5796 5794 5792 5790 5788 5786 5784 5781 5779 5776 5774 5771 5768 5765 5761 5758 5755 5752 5748 5744 5741 5737 5733 5729 5725 5721 5717 5712 5708 5704 5699 5695 5690 5685 5680 5675 5670 5666 5660 5655 5649 5644 5638 5633 5628 5622 5616 5611 5605 5600 5595 5589 5584 5578 5572 5566 5561 5555 5549 5544 5539 5534 5529 5524 5519 5514 5509 5503 5498 5492 5486 5481 5474 5468 5462 5456 5449 5443 5436
5807 5806 5805 5804 5802 5801 5799 5797 5795 5794 5792 5790 5788 5785 5783 5781 5778 5776 5773 5770 5767 5764 5761 5757 5754 5750 5747 5743 5739 5735 5732 5728 5723 5719 5715 5710 5706 5701 5697 5692 5688 5683 5678 5673 5668 5663 5658 5652 5647 5642 5636 5631 5625 5620 5614 5609 5603 5598 5592 5587 5581 5575 5570 5564 5558 5552 5546 5541 5535 5530 5525 5520 5515 5510 5505 5500 5495 5489 5483 5477 5471 5465 5459 5453 5446 5440 5433
5806 5805 5804 5803 5801 5800 5798 5796 5795 5793 5791 5789 5787 5784 5782 5780 5777 5774 5772 5769 5766 5763 5759 5756 5753 5749 5745 5742 5738 5734 5730 5726 5722 5717 5713 5708 5704 5699 5695 5690 5686 5681 5676 5671 5666 5660 5655 5650 5644 5639 5633 5628 5623 5617 5612 5606 5601 5595 5589 5583 5578 5573 5567 5561 5555 5549 5543 5538 5532 5526 5521 5516 5511 5506 5501 5496 5491 5486 5480 5474 5468 5462 5456 5450 5443 5437 5430
5805 5804 5803 5802 5801 5799 5797 5796 5794 5792 5790 5788 5786 5783 5781 5778 5776 5773 5770 5767 5764 5761 5758 5754 5751 5747 5744 5740 5736 5732 5728 5724 5720 5716 5711 5707 5702 5698 5693 5688 5684 5679 5673 5668 5663 5658 5653 5648 5642 5636 5630 5625 5620 5614 5609 5603 5598 5592 5586 5581 5575 5570 5564 5559 5553 5546 5540 5534 5529 5523 5518 5513 5508 5503 5498 5493 5488 5482 5477 5471 5465 5459 5453 5447 5440 5434 5427
5804 5803 5802 5801 5799 5798 5796 5794 5793 5791 5789 5787 5784 5782 5779 5777 5774 5771 5768 5765 5762 5759 5756 5752 5749 5746 5742 5738 5734 5730 5726 5722 5718 5714 5710 5705 5700 5696 5691 5686 5681 5676 5671 5666 5661 5656 5650 5645 5640 5634 5628 5622 5617 5611 5606 5600 5595 5589 5584 5578 5573 5567 5561 5555 5549 5543 5537 5531 5525 5520 5514 5509 5504 5499 5494 5489 5484 5479 5473 5468 5462 5456 5450 5444 5438 5431 5425
5803 5802 5801 5799 5798 5797 5795 5793 5791 5789 5787 5785 5783 5780 5778 5775 5772 5769 5766 5763 5760 5757 5754 5750 5747 5743 5740 5736 5732 5728 5724 5719 5715 5711 5707 5702 5698 5693 5689 5684 5679 5674 5670 5664 5659 5654 5648 5642 5637 5631 5625 5620 5614 5608 5603 5597 5592 5587 5581 5575 5569 5564 5558 5552 5546 5540 5534 5528 5522 5517 5511 5506 5501 5496 5491 5486 5481 5476 5470 5464 5459 5453 5447 5441 5435 5429 5422
5801 5800 5799 5798 5797 5795 5793 5791 5790 5788 5785 5783 5781 5779 5776 5773 5770 5767 5764 5761 5758 5755 5751 5748 5745 5741 5737 5734 5730 5726 5722 5717 5713 5708 5704 5700 5695 5690 5685 5681 5676 5672 5667 5662 5657 5652 5646 5641 5634 5629 5623 5617 5611 5606 5600 5594 5589 5583 5578 5572 5566 5560 5555 5549 5543 5537 5531 5525 5519 5513 5508 5503 5497 5492 5487 5482 5477 5472 5467 5461 5456 5450 5444 5438 5432 5426 5420
5800 5799 5798 5796 5795 5793 5792 5790 5788 5786 5784 5781 5779 5776 5774 5771 5768 5765 5762 5759 5756 5752 5749 5746 5742 5738 5735 5731 5727 5723 5719 5715 5710 5705 5701 5697 5693 5688 5683 5678 5673 5668 5664 5659 5654 5648 5643 5638 5632 5626 5620 5614 5608 5603 5597 5591 5586 5580 5575 5569 5563 5557 5552 5546 5540 5534 5528 5522 5516 5510 5505 5499 5494 5489 5484 5479 5474 5469 5464 5458 5452 5447 5441 5435 5429 5423 5417
5798 5797 5796 5794 5793 5791 5789 5788 5786 5784 5782 5779 5777 5774 5771 5769 5766 5763 5760 5757 5754 5750 5747 5743 5740 5736 5732 5728 5724 5720 5716 5712 5707 5703 5698 5694 5690 5685 5680 5675 5670 5665 5660 5655 5650 5645 5640 5635 5629 5623 5617 5612 5606 5600 5595 5589 5583 5577 5572 5566 5560 5554 5548 5542 5537 5531 5525 5519 5513 5507 5502 5496 5491 5486 5481 5476 5470 5465 5460 5455 5449 5444 5438 5432 5426 5420 5414
5796 5795 5794 5793 5791 5789 5787 5785 5783 5781 5779 5777 5775 5772 5769 5766 5763 5761 5757 5754 5751 5748 5744 5741 5737 5733 5730 5726 5722 5718 5714 5709 5705 5700 5695 5691 5687 5682 5678 5672 5667 5661 5656 5651 5646 5641 5636 5632 5627 5621 5615 5609 5604 5598 5592 5586 5580 5574 5568 5563 5557 5551 5545 5539 5533 5528 5522 5516 5510 5504 5498 5493 5488 5483 5478 5473 5467 5462 5457 5452 5446 5441 5435 5430 5424 5418 5412
5794 5793 5791 5790 5789 5787 5785 5783 5781 5779 5777 5775 5772 5770 5767 5764 5761 5758 5755 5752 5748 5745 5741 5738 5734 5730 5727 5723 5719 5715 5711 5707 5702 5697 5692 5688 5683 5679 5674 5670 5665 5659 5653 5648 5643 5638 5633 5628 5624 5619 5613 5607 5601 5595 5589 5583 5577 5571 5565 5559 5553 5548 5542 5536 5530 5524 5518 5512 5506 5500 5495 5489 5484 5479 5474 5469 5464 5459 5454 5448 5443 5437 5432 5427 5421 5415 5409
5792 5790 5789 5788 5786 5785 5783 5781 5779 5776 5774 5772 5770 5767 5764 5761 5758 5755 5752 5749 5745 5742 5738 5735 5731 5727 5724 5720 5716 5712 5708 5704 5699 5695 5689 5684 5680 5676 5671 5666 5662 5657 5651 5645 5640 5635 5630 5625 5620 5616 5610 5604 5598 5592 5586 5580 5574 5568 5562 5556 5550 5544 5538 5532 5527 5521 5515 5509 5503 5497 5491 5486 5481 5476 5471 5466 5461 5455 5450 5445 5440 5434 5429 5424 5418 5412 5406
5789 5788 5786 5785 5783 5782 5780 5778 5777 5774 5772 5769 5767 5764 5762 5759 5755 5752 5749 5746 5742 5739 5735 5731 5728 5724 5720 5716 5712 5708 5705 5701 5696 5692 5687 5682 5677 5673 5668 5663 5658 5653 5648 5643 5637 5632 5627 5622 5617 5612 5607 5601 5595 5589 5583 5577 5570 5564 5559 5553 5547 5541 5535 5529 5523 5518 5512 5506 5500 5494 5488 5483 5478 5472 5467 5462 5457 5452 5447 5442 5437 5431 5426 5421 5415 5409 5403
5787 5785 5784 5782 5780 5779 5777 5775 5774 5771 5769 5766 5764 5761 5759 5756 5752 5749 5746 5742 5739 5735 5732 5728 5724 5720 5717 5713 5708 5704 5700 5697 5693 5689 5684 5679 5674 5669 5665 5661 5656 5651 5646 5641 5635 5629 5624 5618 5614 5609 5604 5598 5592 5586 5580 5574 5567 5561 5555 5550 5543 5537 5532 5526 5520 5514 5509 5503 5497 5491 5485 5479 5474 5469 5464 5459 5454 5449 5443 5438 5433 5428 5423 5418 5413 5407 5401
5784 5782 5781 5779 5777 5775 5774 5772 5770 5768 5766 5763 5760 5758 5755 5752 5749 5746 5743 5739 5736 5732 5729 5725 5721 5717 5713 5709 5705 5700 5696 5693 5689 5685 5681 5676 5671 5666 5662 5657 5653 5648 5643 5638 5633 5627 5621 5615 5610 5605 5600 5594 5589 5583 5577 5571 5564 5558 5552 5546 5540 5534 5528 5523 5517 5511 5505 5499 5494 5488 5482 5476 5471 5466 5461 5456 5451 5446 5440 5435 5430 5425 5420 5415 5410 5404 5398